Location: Madden
(51.3728°N, 114.3297°W)
Time: 05:54:21
(UTC+00:00)

PCSat - Pass Details

Date: 14 December 2023
Orbit: 784 x 791 km, 67.0° (Epoch: 02 March)

Event Time Altitude Azimuth Distance (km) Brightness Sun altitude
Exits shadow 14:37:17 - 323° (NW) 2,593 11.7 -8.4°
Reaches altitude 10° 14:38:16 10° 331° (NNW) 2,363 11.5 -8.3°
Maximum altitude 14:41:30 16° 8° (N) 1,987 11.5 -7.8°
Drops below altitude 10° 14:44:45 10° 45° (NE) 2,365 12.3 -7.4°
Sets 14:48:12 0° 67° (ENE) 3,294 13.4 -6.9°
